Regional Weather Roundup
Issued by NWS Cleveland, OH

Home | Current Version | Previous Version | Text Only | Print | Product List | Glossary Off
Versions: 1 2 3 4 5 6 7 8 9 10 11 12 13 14 15 16 17 18 19 20 21 22 23 24 25 26 27 28 29 30 31 32 33 34 35 36 37 38 39 40 41 42 43 44 45 46 47 48 49 50

000
ASUS41 KCLE 260912
RWRCLE
OHIO REGIONAL WEATHER ROUNDUP
NATIONAL WEATHER SERVICE WILMINGTON, OH
500 AM EDT FRI AUG 26 2016

NOTE: "FAIR" INDICATES FEW OR NO CLOUDS BELOW 12,000 FEET WITH NO
SIGNIFICANT WEATHER AND/OR OBSTRUCTIONS TO VISIBILITY.

OHZ001>008-015>018-024>027-034-035-043-044-261000-
   NORTHWEST OHIO

CITY           SKY/WX    TMP DP  RH WIND       PRES   REMARKS
DEFIANCE       FAIR      68  64  87 CALM      30.11S
FINDLAY        FAIR      72  66  81 NW3       30.10R
TOLEDO EXPRESS FAIR      66  64  93 NW3       30.10R
TOLEDO EXEC    FAIR      68  63  84 NW3       30.11R
LIMA           FAIR      69  69 100 CALM      30.12R
$$

OHZ009>014-019>023-028>033-038-089-261000-
   NORTHEAST OHIO

CITY           SKY/WX    TMP DP  RH WIND       PRES   REMARKS
CLE-HOPKINS    FAIR      72  68  87 SW5       30.11R
CLE-LAKEFRONT  FAIR      76  68  76 NW12      30.06S
CUY CO. ARPT   NOT AVBL
LORAIN-ELYRIA  CLOUDY    71  68  90 NW5       30.10R
ASHTABULA      MOCLDY    71  71 100 W6        30.08R
AKRON-CANTON   FAIR      71  67  87 W6        30.10S
WOOSTER        MOCLDY    68  67  96 W6        30.12R
MANSFIELD      FAIR      71  69  93 SW3       30.12S
YOUNGSTOWN     FAIR      71  69  93 W6        30.09R
$$

OHZ042-051>053-060>062-070>072-077>081-261000-
  SOUTHWEST OHIO

CITY           SKY/WX    TMP DP  RH WIND       PRES   REMARKS
CINC-COVINGTON FAIR      73  71  93 W5        30.11S
CINC-LUNKEN    FOG       70  70 100 CALM      30.10S VSB 1/2
HAMILTON       FAIR      71  69  93 CALM      30.11S FOG
DAYTON         MOCLDY    74  72  93 CALM      30.12F
WRIGHT-PAT AFB PTCLDY    73  73  98 NE2       30.11S
DAYTON GENERAL FAIR      73  71  93 CALM      30.11S
WILMINGTON     FAIR      74  72  93 NW3       30.12R
$$

OHZ036-037-039>041-045>050-054>059-063>069-073>076-082>088-261000-
  CENTRAL AND SOUTHEAST OHIO

CITY           SKY/WX    TMP DP  RH WIND       PRES   REMARKS
COLUMBUS       FAIR      73  71  93 CALM      30.10S
OSU AIRPORT    FAIR      73  71  93 CALM      30.11R
BOLTON FIELD   CLOUDY    71  71 100 CALM      30.12S
RICKENBACK AFB CLOUDY    71  71  99 CALM      30.10S FOG
NEWARK         FAIR      68  67  96 CALM      30.11R
MARION         FAIR      71  68  90 NW3       30.12R
LANCASTER      FAIR      70  69  97 CALM      30.12R FOG
ZANESVILLE     FAIR      71  70  96 S5        30.11R FOG
NEW PHILLY     FAIR      72  68  87 CALM      30.10S
$$



USA.gov is the U.S. government's official web portal to all federal, state and local government web resources and services.